Simultaneous Nadir Overpasses (SNOs) Predictions

Prediction of SNOs between METOP-C and LANDSAT-8 Satellite Orbit:

Table of predicted SNOs for the next 14.0 days since TLE Epoch: 4/18/2020
Index Date (METOP-C) Time (METOP-C) Lat,Lon (METOP-C) SZA (METOP-C ) Date (LANDSAT-8) Time (LANDSAT-8) Lat,Lon (LANDSAT-8) SZA (LANDSAT-8 ) Distance(km) Time Diff (sec)
1 04/20/2020 08:32:23 -81.05, -89.99 108.72 04/20/2020 08:32:51 -81.05, -89.92 108.70 1.30 28
2 04/20/2020 09:23:02 81.08, 78.21 71.39 04/20/2020 09:22:16 81.08, 78.11 71.36 1.91 46
3 04/23/2020 04:06:46 -81.05, -23.50 109.63 04/23/2020 04:07:05 -81.05, -23.50 109.63 0.17 19
4 04/23/2020 04:57:25 81.09, 144.66 70.47 04/23/2020 04:56:30 81.08, 144.50 70.42 2.93 55
5 04/25/2020 23:41:08 -81.06, 42.98 110.52 04/25/2020 23:41:18 -81.05, 42.90 110.53 1.70 10
6 04/26/2020 00:31:48 81.07,-149.28 69.52 04/26/2020 00:30:43 81.07,-149.14 69.51 2.57 65
7 04/28/2020 18:24:52 81.03, -58.49 68.55 04/28/2020 18:26:05 81.04, -58.45 68.58 0.93 73
8 04/28/2020 19:15:31 -81.06, 109.46 111.39 04/28/2020 19:15:31 -81.07, 109.62 111.36 3.02 0
9 04/28/2020 20:06:04 81.16, -80.23 68.99 04/28/2020 20:04:50 81.23, -80.23 69.01 7.39 74
10 05/01/2020 13:59:15 81.03, 7.92 67.70 05/01/2020 14:00:19 81.03, 7.87 67.72 0.90 64




NCC Satellite Simultaneous Nadir Overpasses (SNOs) Prediction Service
